SL-16 DEB, 22343

Orbit data source: Space-Track

SL-16 DEB, 22343 is space debris in LEO originally from a launch on Fri, 25 Dec 1992 UTC launched from the Tyuratam Missile And Space Complex (TTMTR). Debris objects in space refer to the collection of defunct objects orbiting the Earth. Examples of debris include non-operational satellites, rocket bodies, and fragments generated from explosions, collisions, or faulty payload assembly.

Loading next visibility...
SL-16 DEB details
Identifier
22343, 1992-093AG
Orbit
LEO
Last TLE update20 hours ago
Origin
Flag of CISRVSN RF (CIS)
ManufacturerUnknown
MissionSpacecraft
Bus & MotorUnknown
MassUnknown
Launch date (UTC)
1992-12-25 (32 years ago)
Launch vehicleUnknown
Launch site
Tyuratam Missile And Space Complex (TTMTR)
Object type
Payload
Rocket body
Debris
Shape & HBRUnknown
Radar Cross SectionMedium (>0.1 m² and <1 m²)

Expand to show TLE details & history

TLE from 20 hours ago
0 SL-16 DEB
1 22343U 92093AG  24360.90127936  .00002192  00000-0  11935-2 0  9994
2 22343  70.9572 163.3384 0096039 274.3551 197.4883 14.10992683640247
Epoch: 2024-12-25T21:37Z
Definitive object data (Epoch: 2024-12-25T21:37:50.536Z)
Latitude61.67643°
Longitude-115.58402°
Altitude932.32 km
Speed7.358 km/s
True Right ascension20h 15m 03s
True Declination61° 32' 10"
Sunlit
Object was in daylight at TLE epoch
Visualization TLE readout
Latitude58.17283°
Longitude-111.37762°
Altitude929.058 km
Speed7.36 km/s
Apparent Right ascension02h 01m 09s
Apparent Declination30° 36' 29"
Sunlit
Object is in daylight
Visualization observer readout
Local Sidereal Time17:26:39
Azimuth42.442° NE
Elevation-4.897°
Doppler factor1
Orbital elements
Apogee altitude923.365 km
Perigee altitude784.454 km
Semi-major axis7,232.046 km
Eccentricity0.0096039
Inclination70.9572°
RAAN163.3384°
Arg. of periapsis274.3551°
True anomaly197.16133°
Mean anomaly197.4883°
Eccentric anomaly197.32444°
Mean motion3.529 °/min
BSTAR0.0011935
Orbital period102.01 mins
Loading maneuver chart data...
Loading historical data...
Loading historical data...
Loading historical data...
Loading historical data...
Loading historical data...
Loading historical data...
Loading historical data...

SL-16 DEB Visibility forecast

Observer location: undefined°, undefined

Span
Click to sort rows by Start time (UTC) header in descending order
Start Az.
Max El. time (UTC)
Max El. Az.
Max El.
End time (UTC)
End Az.
10 mins2024-12-26 21:28:12.751Z350.625° N2024-12-26 21:33:12.751Z53.556° ENE34.614°2024-12-26 21:38:12.751Z128.527° SE
8 mins2024-12-26 23:14:12.751Z303.26° NW2024-12-26 23:17:12.751Z264.268° W24.831°2024-12-26 23:22:12.751Z203.225° SW
9 mins2024-12-27 12:22:12.751Z205.903° SW2024-12-27 12:26:12.751Z321.578° NNW44.755°2024-12-27 12:31:12.751Z21.308° NNE
4 mins2024-12-27 14:10:12.751Z299.478° NW2024-12-27 14:11:12.751Z310.628° NW14.321°2024-12-27 14:14:12.751Z342.15° N
|